Date String (YYYY-MM-DD hh:mm:ss) UTC,Instrument flags,Ambient pressure (hPa),Sample flow (lpm),Bypass flow (lpm),Sample temperature (°C),Ambient temperature (°C),ASC tube jacket temperature (°C),LED temperature (°C),Box temperature (°C),Sample RH (%),Mass concentration (μg/m³),Mass concentration (μg/m³)
DateTimeUTC,F1_M11,P_M11,Q1_M11,Q2_M11,T1_M11,T2_M11,T3_M11,T4_M11,T5_M11,U1_M11,X2_M11,X0_M11
2021-08-14 12:00:00,,0834.6,5.02,0.00,29.7,28.3,00.0,38.8,31.4,31.4,0012.84,0026.87
2021-08-14 12:01:00,,0834.7,4.99,0.00,29.7,28.4,00.0,38.8,31.5,31.4,0012.83,0027.58
2021-08-14 12:02:00,,0834.7,5.02,0.00,29.7,28.5,00.0,38.8,31.5,31.4,0012.85,0027.88
2021-08-14 12:03:00,,0834.7,4.99,0.00,29.8,28.6,00.0,38.8,31.6,31.3,0012.85,0028.14
2021-08-14 12:04:00,,0834.7,5.01,0.00,29.8,28.7,00.0,38.9,31.6,31.3,0012.82,0027.89
2021-08-14 12:05:00,,0834.7,4.98,0.00,29.8,28.8,00.0,38.9,31.6,31.3,0012.81,0026.74
2021-08-14 12:06:00,,0834.7,5.01,0.00,29.8,28.8,00.0,38.9,31.7,31.3,0012.76,0026.84
2021-08-14 12:07:00,,0834.7,5.00,0.00,29.9,28.9,00.0,38.9,31.7,31.3,0012.74,0026.74
2021-08-14 12:08:00,,0834.7,5.00,0.00,29.9,29.0,00.0,38.9,31.7,31.2,0012.73,0026.41
2021-08-14 12:09:00,,0834.7,5.00,0.00,29.9,29.0,00.0,38.9,31.7,31.3,0012.72,0026.43
2021-08-14 12:10:00,,0834.7,5.00,0.00,29.9,29.0,00.0,38.9,31.8,31.6,0012.78,0026.37
2021-08-14 12:11:00,,0834.7,5.01,0.00,30.0,29.1,00.0,39.0,31.8,31.9,0012.73,0025.03
2021-08-14 12:12:00,,0834.7,4.98,0.00,30.0,29.1,00.0,39.0,31.8,32.0,0012.60,0024.14
2021-08-14 12:13:00,,0834.7,5.01,0.00,30.0,29.2,00.0,39.0,31.9,32.0,0012.49,0023.45
2021-08-14 12:14:00,,0834.7,5.00,0.00,30.0,29.2,00.0,39.0,31.9,32.1,0012.40,0022.18
2021-08-14 12:15:00,,0834.7,5.00,0.00,30.0,29.2,00.0,39.0,31.9,32.0,0012.34,0022.14
2021-08-14 12:16:00,,0834.7,5.00,0.00,30.1,29.3,00.0,39.1,31.9,31.8,0012.29,0022.15
2021-08-14 12:17:00,,0834.7,5.01,0.00,30.1,29.3,00.0,39.1,31.9,31.6,0012.21,0021.24
2021-08-14 12:18:00,,0834.7,4.98,0.00,30.1,29.2,00.0,39.1,31.9,31.8,0012.12,0020.87
2021-08-14 12:19:00,,0834.7,5.01,0.00,30.0,27.5,00.0,39.1,31.4,32.0,0012.04,0021.19
2021-08-14 12:20:00,,0834.7,4.99,0.00,29.9,26.5,00.0,39.0,31.2,32.5,0011.87,0021.09
2021-08-14 12:21:00,,0834.7,5.00,0.00,29.8,26.5,00.0,39.0,31.2,32.7,0011.79,0020.78
2021-08-14 12:22:00,,0834.7,5.00,0.00,29.7,26.9,00.0,39.0,31.2,32.8,0011.79,0020.95
2021-08-14 12:23:00,,0834.7,5.00,0.00,29.7,27.2,00.0,38.9,31.2,33.0,0011.82,0021.08
2021-08-14 12:24:00,,0834.7,5.01,0.00,29.7,27.6,00.0,38.9,31.3,33.1,0011.91,0021.97
2021-08-14 12:25:00,,0834.7,5.00,0.00,29.7,27.8,00.0,38.9,31.3,33.1,0011.94,0022.22
2021-08-14 12:26:00,,0834.7,5.00,0.00,29.7,28.0,00.0,38.9,31.4,33.2,0011.90,0023.61
2021-08-14 12:27:00,,0834.7,4.99,0.00,29.7,28.2,00.0,38.9,31.4,33.1,0011.90,0024.71
2021-08-14 12:28:00,,0834.8,5.00,0.00,29.7,28.3,00.0,38.9,31.5,33.0,0011.92,0025.85
2021-08-14 12:29:00,,0834.8,5.00,0.00,29.7,28.4,00.0,38.9,31.5,32.9,0011.98,0026.40
2021-08-14 12:30:00,,0834.8,4.99,0.00,29.8,28.6,00.0,38.9,31.5,32.7,0012.07,0026.95
2021-08-14 12:31:00,,0834.8,4.99,0.00,29.8,28.6,00.0,38.9,31.6,32.6,0012.21,0027.76
2021-08-14 12:32:00,,0834.8,5.01,0.00,29.8,28.7,00.0,38.9,31.6,32.5,0012.21,0028.07
2021-08-14 12:33:00,,0834.8,4.99,0.00,29.8,28.8,00.0,38.9,31.6,32.4,0012.18,0027.94
2021-08-14 12:34:00,,0834.8,5.00,0.00,29.9,28.8,00.0,38.9,31.7,32.3,0012.23,0027.67
2021-08-14 12:35:00,,0834.8,5.00,0.00,29.9,28.9,00.0,38.9,31.7,32.1,0012.26,0027.76
2021-08-14 12:36:00,,0834.9,5.00,0.00,29.9,28.9,00.0,38.9,31.7,32.0,0012.34,0028.00
2021-08-14 12:37:00,,0834.9,5.01,0.00,29.9,29.0,00.0,39.0,31.7,32.0,0012.42,0027.44
2021-08-14 12:38:00,,0834.8,5.00,0.00,29.9,29.0,00.0,39.0,31.7,31.9,0012.52,0027.24
2021-08-14 12:39:00,,0834.9,5.00,0.00,30.0,29.1,00.0,39.0,31.8,31.8,0012.57,0027.05
2021-08-14 12:40:00,,0834.9,5.01,0.00,30.0,29.1,00.0,39.0,31.8,31.8,0012.57,0027.53
2021-08-14 12:41:00,,0834.8,5.00,0.00,30.0,29.2,00.0,39.0,31.9,31.8,0012.53,0026.69
2021-08-14 12:42:00,,0834.8,5.00,0.00,30.0,29.2,00.0,39.0,31.9,31.6,0012.50,0025.70
2021-08-14 12:43:00,,0834.8,5.00,0.00,30.1,29.2,00.0,39.1,31.9,31.4,0012.53,0026.04
2021-08-14 12:44:00,,0834.8,5.00,0.00,30.1,29.3,00.0,39.1,31.9,31.4,0012.49,0025.88
2021-08-14 12:45:00,,0834.9,5.01,0.00,30.1,29.3,00.0,39.1,32.0,31.4,0012.40,0026.54
2021-08-14 12:46:00,,0834.8,5.00,0.00,30.1,29.3,00.0,39.1,32.0,31.4,0012.33,0026.72
2021-08-14 12:47:00,,0834.8,5.01,0.00,30.1,29.0,00.0,39.1,31.9,31.3,0012.28,0026.87
2021-08-14 12:48:00,,0834.8,4.98,0.00,30.0,27.3,00.0,39.1,31.4,31.6,0012.34,0026.55
2021-08-14 12:49:00,,0834.8,5.00,0.00,29.9,26.5,00.0,39.1,31.2,31.9,0012.32,0026.07
2021-08-14 12:50:00,,0834.8,5.01,0.00,29.8,26.7,00.0,39.1,31.3,32.1,0012.29,0025.38
2021-08-14 12:51:00,,0834.7,5.01,0.00,29.7,27.1,00.0,39.0,31.3,32.2,0012.25,0025.45
2021-08-14 12:52:00,,0834.7,5.00,0.00,29.7,27.5,00.0,39.0,31.3,32.4,0012.21,0026.13
2021-08-14 12:53:00,,0834.7,5.01,0.00,29.7,27.7,00.0,39.0,31.4,32.3,0012.08,0026.03
2021-08-14 12:54:00,,0834.7,4.98,0.00,29.7,28.0,00.0,39.0,31.4,32.2,0012.02,0025.44
2021-08-14 12:55:00,,0834.7,5.01,0.00,29.8,28.2,00.0,38.9,31.5,32.3,0011.99,0025.30
2021-08-14 12:56:00,,0834.7,4.99,0.00,29.8,28.3,00.0,38.9,31.5,32.4,0011.94,0025.13
2021-08-14 12:57:00,,0834.7,5.01,0.00,29.8,28.4,00.0,38.9,31.6,32.1,0011.85,0024.14
2021-08-14 12:58:00,,0834.7,4.99,0.00,29.8,28.6,00.0,38.9,31.6,32.3,0011.77,0023.68
2021-08-14 12:59:00,,0834.7,5.01,0.00,29.8,28.6,00.0,38.9,31.6,32.6,0011.63,0023.22
